Regional Weather Roundup
Issued by NWS Upton, NY

Current Version | Previous Version | Text Only | Print | Product List | Glossary On
Versions: 1 2 3 4 5 6 7 8 9 10 11 12 13 14 15 16 17 18 19 20 21 22 23 24 25 26 27 28 29 30 31 32 33 34 35 36 37 38 39 40 41 42 43 44 45 46 47 48 49 50
000 ASUS41 KOKX 022205 RWROKX REGIONAL WEATHER ROUNDUP NATIONAL WEATHER SERVICE NEW YORK NY 600 PM EDT TUE SEP 02 2014 NOTE: "FAIR" INDICATES FEW OR NO CLOUDS BELOW 12,000 FEET WITH NO SIGNIFICANT WEATHER AND/OR OBSTRUCTIONS TO VISIBILITY. NYZ071-072-176-178-NJZ106-104-022300- NEW YORK CITY METRO AREA CITY SKY/WX TMP DP RH WIND PRES REMARKS CENTRAL PARK MOSUNNY 88 64 44 VRB5 29.83F LAGUARDIA APRT PTSUNNY 91 65 41 SW13 29.79F HX 93 KENNEDY INTL MOSUNNY 84 73 69 S15 29.82F HX 90 NEWARK/LIBERTY MOSUNNY 92 66 42 SW10 29.80F HX 94 BRNX BOT. GARD N/A 90 64 43 W7 29.81S HX 91 TETERBORO SUNNY 91 64 40 SW13 29.78F HX 92 $$ NYZ177-179-078>081-022300- LONG ISLAND NEW YORK CITY SKY/WX TMP DP RH WIND PRES REMARKS FARMINGDALE SUNNY 84 72 67 SW14 29.82F ISLIP PTSUNNY 84 72 67 SW12 29.81F SHIRLEY SUNNY 83 72 69 SW15G23 29.83F WESTHAMPTON SUNNY 83 71 67 SW9 29.85S MONTAUK POINT N/A 80 72 76 SW8 29.85S $$ NYZ052-065-067-022300- HUDSON VALLEY CITY SKY/WX TMP DP RH WIND PRES REMARKS WHITE PLAINS SUNNY 87 66 49 SW5 29.81F NEWBURGH MOSUNNY 88 70 55 W16 29.81F HX 92 MONTGOMERY MOSUNNY 88 68 51 SW14 29.78F HX 91 POUGHKEEPSIE SUNNY 89 68 49 SW8 29.76F HX 93 ALBANY MOSUNNY 83 69 62 VRB3 29.75F $$ NJZ001-105-106-008-010-013-015-019>022-104-022300- NEW JERSEY CITY SKY/WX TMP DP RH WIND PRES REMARKS NEWARK/LIBERTY MOSUNNY 92 66 42 SW10 29.80F HX 94 TETERBORO SUNNY 91 64 40 SW13 29.78F HX 92 CALDWELL SUNNY 89 65 44 W8 29.81F HX 91 MORRISTOWN MOSUNNY 90 66 45 W13G18 29.81F HX 92 SOMERVILLE SUNNY 90 66 45 VRB6 29.80F HX 92 LINDEN FAIR 95 67 40 W8 29.82F HX 99 SUSSEX SUNNY 88 67 49 SW8G17 29.81F HX 91 ANDOVER N/A 86 68 54 SW8 29.83F TRENTON MOSUNNY 88 67 49 SW8 29.83S HX 91 MILLVILLE SUNNY 89 69 51 SW3 29.86F HX 93 ATLANTIC CITY MOSUNNY 89 70 53 SW7 29.86F HX 94 WRIGHTSTOWN SUNNY 88 73 60 SW12 29.82F HX 95 TOMS RIVER SUNNY 90 70 51 SW9 29.85S HX 95 BELMAR SUNNY 88 72 58 SW7 29.84F HX 94 $$ PAZ047>061-062-071-022300- EASTERN PENNSYLVANIA CITY SKY/WX TMP DP RH WIND PRES REMARKS PHILADELPHIA MOSUNNY 91 70 49 SW13 29.85F HX 96 ALLENTOWN MOSUNNY 88 66 48 SW9G18 29.83F HX 90 SCRANTON MOSUNNY 86 63 45 SW9 29.82F $$ CTZ002-004>006-009-010-012-RIZ004-006-007-MAZ004-011-015-022300- SOUTHERN NEW ENGLAND IN CT CITY SKY/WX TMP DP RH WIND PRES REMARKS BRADLEY INTL MOSUNNY 89 68 49 SW10 29.78S HX 93 HARTFORD MOSUNNY 86 71 60 S12G21 29.78S HX 91 DANBURY MOSUNNY 86 70 58 S7 29.82F HX 90 WTRBRY/OXFORD MOSUNNY 84 72 65 SW6 29.86S BRIDGEPORT SUNNY 86 73 65 S13 29.80F HX 93 MERIDEN MOSUNNY 87 72 60 S10 29.80F HX 93 NEW HAVEN SUNNY 86 74 67 S8 29.80F HX 94 CHESTER FAIR 82 73 74 S7 29.84S GROTON SUNNY 77 72 84 SW8 29.82S WILLIMANTIC SUNNY 85 72 65 SW10 29.82R HX 91 IN RI CITY SKY/WX TMP DP RH WIND PRES REMARKS PROVIDENCE PTSUNNY 85 70 60 S12 29.82S BLOCK ISLAND SUNNY 75 70 83 SW16G22 29.85R WESTERLY SUNNY 79 72 79 SW10 29.84R IN MA CITY SKY/WX TMP DP RH WIND PRES REMARKS BOSTON PTSUNNY 83 72 69 W7 29.80R WORCESTER MOSUNNY 77 70 79 CALM 29.85S WESTFIELD MOSUNNY 89 69 51 SW7 29.78F HX 93 PROVINCETOWN PTSUNNY 79 72 78 SW14 29.83R NANTUCKET CLOUDY 72 70 94 S7 29.86S FOG $$ ANZ330-335-338-340-345-350-353-355-022300- COASTAL MARINE OBSERVATIONS STATION/POSITION TIME SKY/WX TEMP WIND PRES VSBY WAVE AIR SEA DIR/SP/G HT/PER (UTC) (F) (DEG/KT/KT) (MB) (MI) (FT/S) NY HARB ENTRANCE NOT AVBL 4S FIRE IS NOT AVBL 23SW MTP 2200 N/A 2/ 6 HUDSON CANYON 2200 78 76 220/ 14/ 14 1011.4 3/ 5 EXECUTION ROCKS 2200 85 76 200/ 12/ 16 N/A WESTERN LI SOUND 2200 84 180/ 10/ 12 N/A 1 CENTRAL LI SOUND 2200 80 77 210/ 12/ 12 N/A 1/ 2 EASTERN LI SOUND 2100 76 71 190/ 8/ 14 N/A ROBBINS REEF 2200 90 230/ 13/ 15 N/A $$ >>>>>>>>>>>>>>>>>>>>>>>>>>>> KEY <<<<<<<<<<<<<<<<<<<<<<<<<<< > < > SKY/WX - SKY CONDITION/PRESENT WEATHER < > TMP - TEMPERATURE IN FAHRENHEIT < > DP - DEWPOINT IN FAHRENHEIT < > RH - RELATIVE HUMIDITY IN PERCENT < > WIND - DIRECTION AND SPEED IN MPH < > PRES - MEAN SEA LEVEL PRESSURE IN INCHES OF HG < > WCI - WIND CHILL INDEX < > VSB - VISIBILITY IN MILES < > HX - HEAT INDEX < > TC - TEMPERATURE IN CELSIUS < > VRB - VARIABLE WIND DIRECTION < > < >>>>>>>>>>>>>>>>>>>>>>>>>>>> KEY <<<<<<<<<<<<<<<<<<<<<<<<<<<

USA.gov is the U.S. government's official web portal to all federal, state and local government web resources and services.